Yuma, AZ (85364)

11:01 PM MST on September 04, 2015 (GMT -0700)
APRSWXNET | | Change Station
CLOSE
Current Station
Personal Weather Station
Location: Yuma, AZ
Elevation: 125 ft
Nearby Weather Stations

Elev 125 ft 32.72 °N, 114.65 °W | Updated 22 minutes ago

Clear
Clear
86 °F
Feels Like 91 °F
N
3
Wind Variable Wind from South
Gusts 5.0 mph

Today
High -- | Low -- °F
--% Chance of Precip.
Yesterday
High -- | Low -- °F
Precip. -- in
6:15 AM 6:59 PM
Waning Gibbous, 52% visible
Pressure 29.73 in
Visibility 10.0 miles
Clouds Clear
Heat Index 91 °F
Dew Point 70 °F
Humidity 60%
Rainfall in
Snow Depth Not available.
UV 0 out of 12
Pollen 7.50 out of 12
Air Quality Not available.
Flu Activity Not available.
METAR KNYL 050557Z AUTO 17018KT 10SM CLR 30/22 A2974 RMK AO2 SLP067 T03000217 10383 20300 51013
Pressure 29.73 in
Visibility 10.0 miles
Clouds Clear
Heat Index 91 °F
Dew Point 70 °F
Humidity 60%
Rainfall in
Snow Depth Not available.
UV 0 out of 12
Pollen 7.50 out of 12
Air Quality Not available.
Flu Activity Not available.
METAR KNYL 050557Z AUTO 17018KT 10SM CLR 30/22 A2974 RMK AO2 SLP067 T03000217 10383 20300 51013

10-Day Weather Forecast

×

Almanac

Astronomy

Sep. 04, 2015 Rise Set
Actual Time
Civil Twilight
Nautical Twilight
Astronomical Twilight
Moon
Length of Visible Light
Length of Day
Tomorrow will be .
, % of the Moon is Illuminated

Today's Extremes

State Highs State Lows

Community

WunderPhotos

Upload Photos

1,852,431 photos uploaded!

WunderBlogs® & News

Nearby

Air Quality

  Air Quality AQ Index Pollutant
Not available.

Snow Depth

Station Depth Elevation

Earthquake Activity

City Distance Mag. Time & Date
Minimum magnitude displayed is 2.5.

Coastal Water Temperatures

Place Temperature

Stations

Nearby Weather Stations

Station Location Temp. Windchill Dew Point Humidity Wind Precip. Elev Updated Type